Simultaneous Nadir Overpasses (SNOs) Predictions

Prediction of SNOs between GOES-16 and TERRA Satellite Orbit:

Table of predicted SNOs for the next 14.0 days since TLE Epoch: 8/15/2020
Index Date Time (GOES-16) GOES-16 Lat,Lon TERRA Lat,Lon Distance(km) Time Diff (sec)
1 08/16/2020 15:11:45 0.00, -75.18 -0.90, -70.80 497.15 80
2 08/17/2020 03:35:50 -0.01, -75.16 -0.16, -76.00 95.16 80
3 08/19/2020 03:20:59 -0.00, -75.15 0.43, -73.04 239.58 80
4 08/19/2020 15:44:54 0.01, -75.17 0.65, -78.20 345.17 80
5 08/21/2020 15:32:44 0.01, -75.17 0.02, -75.25 9.87 80
6 08/23/2020 15:17:54 0.00, -75.17 -0.60, -72.30 325.88 80
7 08/24/2020 03:41:59 -0.01, -75.15 -0.48, -77.50 266.00 80
8 08/26/2020 03:27:09 -0.01, -75.16 0.11, -74.54 70.08 80
9 08/28/2020 03:15:00 -0.01, -75.17 0.75, -71.60 406.37 80
10 08/28/2020 15:38:56 0.02, -75.19 0.36, -76.75 177.98 80
